JES3797 SABE-SBGL

Flight info

Callsign JES3797
Flight time N/A
Altitude 35000
Route DORVO8 DORVO UN857 AKNUB
Aircraft A320/M-SDE3FGHIRWY/LB1

Departure

Time N/A
Airport Aeroparque Jorge Newbery (SABE)

Arrival

Time 2026-05-03 22:35
Airport Rio Galeão – Tom Jobim International Airport (SBGL)
Time Latitude Longitude Altitude Speed Heading
2026-05-03 20:15 -33.64925 -55.99903 24165 ft 456 kts 47°
2026-05-03 20:15 -33.62848 -55.97012 24160 ft 456 kts 47°
2026-05-03 20:15 -33.60771 -55.94129 24174 ft 456 kts 47°
2026-05-03 20:15 -33.58697 -55.91250 24172 ft 456 kts 47°
2026-05-03 20:16 -33.56615 -55.88359 24169 ft 456 kts 47°
2026-05-03 20:16 -33.54570 -55.85522 24163 ft 456 kts 47°
2026-05-03 20:16 -33.52491 -55.82640 24175 ft 456 kts 47°
2026-05-03 20:16 -33.50409 -55.79752 24168 ft 456 kts 47°
2026-05-03 20:17 -33.48323 -55.76860 24166 ft 456 kts 47°
2026-05-03 20:17 -33.46270 -55.74021 24176 ft 456 kts 47°
2026-05-03 20:17 -33.44191 -55.71147 24172 ft 456 kts 47°
2026-05-03 20:17 -33.42109 -55.68266 24172 ft 457 kts 47°
2026-05-03 20:18 -33.40026 -55.65382 24174 ft 457 kts 47°
2026-05-03 20:18 -33.38650 -55.63478 24174 ft 457 kts 47°
2026-05-03 20:18 -33.36571 -55.60606 24176 ft 457 kts 47°
2026-05-03 20:18 -33.34483 -55.57730 24164 ft 456 kts 47°
2026-05-03 20:19 -33.32401 -55.54865 24173 ft 456 kts 47°
2026-05-03 20:19 -33.30317 -55.51998 24177 ft 456 kts 47°
2026-05-03 20:19 -33.28232 -55.49131 24175 ft 456 kts 47°
2026-05-03 20:19 -33.26146 -55.46265 24178 ft 456 kts 47°
2026-05-03 20:20 -33.24061 -55.43403 24176 ft 456 kts 47°
2026-05-03 20:20 -33.21975 -55.40538 24176 ft 456 kts 47°
2026-05-03 20:20 -33.19889 -55.37674 24176 ft 456 kts 47°
2026-05-03 20:20 -33.17805 -55.34815 24177 ft 456 kts 47°
2026-05-03 20:21 -33.15734 -55.31982 24178 ft 456 kts 46°
2026-05-03 20:21 -33.13647 -55.29131 24177 ft 456 kts 46°
2026-05-03 20:21 -33.11555 -55.26277 24177 ft 456 kts 46°
2026-05-03 20:21 -33.09466 -55.23427 24175 ft 456 kts 46°
2026-05-03 20:22 -33.07376 -55.20580 24176 ft 455 kts 46°
2026-05-03 20:22 -33.05291 -55.17744 24176 ft 455 kts 46°
2026-05-03 20:22 -33.03208 -55.14910 24180 ft 455 kts 46°
2026-05-03 20:22 -33.01143 -55.12101 24179 ft 455 kts 46°
2026-05-03 20:23 -32.99060 -55.09269 24179 ft 455 kts 46°
2026-05-03 20:23 -32.96969 -55.06430 24179 ft 455 kts 46°
2026-05-03 20:23 -32.94878 -55.03589 24179 ft 455 kts 46°
2026-05-03 20:23 -32.92792 -55.00755 24179 ft 455 kts 46°
2026-05-03 20:24 -32.90705 -54.97920 24179 ft 455 kts 46°
2026-05-03 20:24 -32.88623 -54.95093 24181 ft 455 kts 46°
2026-05-03 20:24 -32.86532 -54.92259 24182 ft 454 kts 46°
2026-05-03 20:24 -32.84446 -54.89436 24182 ft 454 kts 46°
2026-05-03 20:25 -32.82380 -54.86643 24179 ft 454 kts 46°
2026-05-03 20:25 -32.80289 -54.83821 24179 ft 454 kts 46°
2026-05-03 20:25 -32.78193 -54.80993 24179 ft 455 kts 46°
2026-05-03 20:25 -32.76105 -54.78175 24179 ft 455 kts 46°
2026-05-03 20:26 -32.74014 -54.75354 24178 ft 454 kts 46°
2026-05-03 20:26 -32.71924 -54.72533 24182 ft 454 kts 46°
2026-05-03 20:26 -32.69833 -54.69716 24173 ft 454 kts 46°
2026-05-03 20:26 -32.67744 -54.66913 24185 ft 453 kts 46°
2026-05-03 20:27 -32.65651 -54.64113 24184 ft 453 kts 46°
2026-05-03 20:27 -32.63557 -54.61311 24184 ft 453 kts 46°
2026-05-03 20:27 -32.61468 -54.58507 24184 ft 453 kts 46°
2026-05-03 20:27 -32.59382 -54.55706 24184 ft 453 kts 46°
2026-05-03 20:28 -32.57293 -54.52909 24185 ft 453 kts 46°
2026-05-03 20:28 -32.55202 -54.50116 24184 ft 453 kts 46°
2026-05-03 20:28 -32.53110 -54.47321 24186 ft 453 kts 45°
2026-05-03 20:28 -32.51017 -54.44529 24184 ft 453 kts 45°
2026-05-03 20:29 -32.48925 -54.41734 24187 ft 453 kts 45°
2026-05-03 20:29 -32.46864 -54.38976 24187 ft 453 kts 45°
2026-05-03 20:29 -32.44772 -54.36186 24187 ft 453 kts 45°
2026-05-03 20:29 -32.42678 -54.33397 24189 ft 453 kts 45°
2026-05-03 20:30 -32.40583 -54.30608 24187 ft 453 kts 45°
2026-05-03 20:30 -32.38485 -54.27817 24187 ft 453 kts 45°
2026-05-03 20:30 -32.36389 -54.25033 24188 ft 453 kts 45°
2026-05-03 20:30 -32.34289 -54.22251 24165 ft 453 kts 45°
2026-05-03 20:31 -32.32200 -54.19462 24168 ft 453 kts 46°
2026-05-03 20:31 -32.30127 -54.16657 24156 ft 452 kts 46°
2026-05-03 20:31 -32.28064 -54.13845 24170 ft 452 kts 46°
2026-05-03 20:31 -32.26003 -54.11034 24171 ft 452 kts 46°
2026-05-03 20:32 -32.23943 -54.08228 24172 ft 452 kts 46°
2026-05-03 20:32 -32.21875 -54.05421 24175 ft 452 kts 46°
2026-05-03 20:32 -32.19812 -54.02625 24175 ft 452 kts 46°
2026-05-03 20:32 -32.17747 -53.99831 24178 ft 452 kts 46°
2026-05-03 20:33 -32.15705 -53.97075 24182 ft 451 kts 46°
2026-05-03 20:33 -32.13631 -53.94285 24180 ft 451 kts 45°
2026-05-03 20:33 -32.11558 -53.91496 24183 ft 451 kts 45°
2026-05-03 20:33 -32.09487 -53.88713 24189 ft 451 kts 45°
2026-05-03 20:34 -32.07417 -53.85932 24189 ft 451 kts 45°
2026-05-03 20:34 -32.05348 -53.83148 24185 ft 451 kts 46°
2026-05-03 20:34 -32.03279 -53.80365 24188 ft 451 kts 45°
2026-05-03 20:34 -32.01203 -53.77582 24184 ft 451 kts 45°
2026-05-03 20:35 -31.99128 -53.74805 24188 ft 451 kts 45°
2026-05-03 20:35 -31.97049 -53.72025 24185 ft 451 kts 45°
2026-05-03 20:35 -31.94977 -53.69254 24187 ft 451 kts 45°
2026-05-03 20:35 -31.92931 -53.66518 24186 ft 451 kts 45°
2026-05-03 20:36 -31.90859 -53.63749 24176 ft 450 kts 45°
2026-05-03 20:36 -31.88787 -53.60979 24187 ft 450 kts 45°
2026-05-03 20:36 -31.86718 -53.58219 24187 ft 450 kts 45°
2026-05-03 20:36 -31.84645 -53.55453 24187 ft 449 kts 45°
2026-05-03 20:37 -31.82570 -53.52689 24192 ft 449 kts 45°
2026-05-03 20:37 -31.80504 -53.49937 24190 ft 449 kts 45°
2026-05-03 20:37 -31.78432 -53.47183 24190 ft 449 kts 45°
2026-05-03 20:37 -31.76360 -53.44432 24196 ft 449 kts 45°
2026-05-03 20:38 -31.74288 -53.41681 24193 ft 449 kts 45°
2026-05-03 20:38 -31.72217 -53.38932 24196 ft 449 kts 45°
2026-05-03 20:38 -31.70145 -53.36184 24196 ft 449 kts 45°
2026-05-03 20:38 -31.68097 -53.33468 24195 ft 449 kts 45°
2026-05-03 20:39 -31.66024 -53.30724 24199 ft 449 kts 45°
2026-05-03 20:39 -31.63952 -53.27983 24196 ft 449 kts 45°
2026-05-03 20:39 -31.61873 -53.25233 24192 ft 449 kts 45°
2026-05-03 20:39 -31.59799 -53.22494 24198 ft 449 kts 45°
2026-05-03 20:40 -31.57724 -53.19753 24198 ft 449 kts 45°
2026-05-03 20:40 -31.55652 -53.17017 24198 ft 448 kts 45°
2026-05-03 20:40 -31.53574 -53.14276 24198 ft 448 kts 45°
2026-05-03 20:40 -31.51502 -53.11546 24184 ft 448 kts 45°
2026-05-03 20:41 -31.49434 -53.08816 24199 ft 448 kts 46°
2026-05-03 20:41 -31.47365 -53.06085 24198 ft 447 kts 45°
2026-05-03 20:41 -31.45322 -53.03394 24201 ft 447 kts 45°
2026-05-03 20:41 -31.43252 -53.00673 24201 ft 447 kts 45°
2026-05-03 20:42 -31.41179 -52.97960 24201 ft 447 kts 45°
2026-05-03 20:42 -31.39101 -52.95246 24203 ft 447 kts 45°
2026-05-03 20:42 -31.37023 -52.92531 24204 ft 447 kts 45°
2026-05-03 20:42 -31.34951 -52.89821 24203 ft 447 kts 45°
2026-05-03 20:43 -31.32880 -52.87106 24200 ft 447 kts 45°
2026-05-03 20:43 -31.30805 -52.84389 24207 ft 448 kts 45°
2026-05-03 20:43 -31.28728 -52.81670 24206 ft 447 kts 46°
2026-05-03 20:43 -31.26658 -52.78958 24209 ft 447 kts 45°
2026-05-03 20:44 -31.24584 -52.76247 24211 ft 447 kts 46°
2026-05-03 20:44 -31.22532 -52.73567 24209 ft 447 kts 45°
2026-05-03 20:44 -31.20453 -52.70858 24208 ft 447 kts 45°
2026-05-03 20:44 -31.18373 -52.68153 24209 ft 447 kts 45°
2026-05-03 20:45 -31.16291 -52.65444 24206 ft 447 kts 45°
2026-05-03 20:45 -31.14210 -52.62736 24206 ft 447 kts 45°
2026-05-03 20:45 -31.12133 -52.60033 24197 ft 447 kts 46°
2026-05-03 20:45 -31.10058 -52.57335 24208 ft 447 kts 46°
2026-05-03 20:46 -31.07992 -52.54655 24207 ft 447 kts 46°
2026-05-03 20:46 -31.05913 -52.51960 24208 ft 447 kts 46°
2026-05-03 20:46 -31.03836 -52.49266 24209 ft 447 kts 46°
2026-05-03 20:46 -31.01759 -52.46574 24208 ft 446 kts 46°
2026-05-03 20:47 -30.99677 -52.43880 24211 ft 446 kts 46°
2026-05-03 20:47 -30.97599 -52.41191 24208 ft 446 kts 46°
2026-05-03 20:47 -30.95518 -52.38500 24209 ft 446 kts 46°
2026-05-03 20:47 -30.93465 -52.35847 24211 ft 446 kts 46°
2026-05-03 20:48 -30.91383 -52.33164 24206 ft 446 kts 45°
2026-05-03 20:48 -30.89302 -52.30482 24206 ft 446 kts 45°
2026-05-03 20:48 -30.87205 -52.27811 24211 ft 446 kts 45°
2026-05-03 20:48 -30.85089 -52.25159 24215 ft 446 kts 45°
2026-05-03 20:49 -30.82972 -52.22530 24213 ft 446 kts 44°
2026-05-03 20:49 -30.80847 -52.19904 24215 ft 446 kts 44°
2026-05-03 20:49 -30.78719 -52.17271 24216 ft 446 kts 45°
2026-05-03 20:49 -30.76599 -52.14639 24219 ft 446 kts 45°
2026-05-03 20:50 -30.74487 -52.12005 24217 ft 446 kts 45°
2026-05-03 20:50 -30.72369 -52.09363 24209 ft 446 kts 45°
2026-05-03 20:50 -30.70254 -52.06728 24222 ft 445 kts 45°
2026-05-03 20:50 -30.68140 -52.04099 24216 ft 445 kts 45°
2026-05-03 20:51 -30.66030 -52.01473 24214 ft 445 kts 45°
2026-05-03 20:51 -30.63919 -51.98850 24219 ft 444 kts 45°
2026-05-03 20:51 -30.61806 -51.96229 24221 ft 444 kts 45°
2026-05-03 20:51 -30.59721 -51.93645 24219 ft 444 kts 45°
2026-05-03 20:52 -30.57603 -51.91021 24212 ft 444 kts 45°
2026-05-03 20:52 -30.55493 -51.88407 24216 ft 444 kts 45°
2026-05-03 20:52 -30.53382 -51.85789 24224 ft 444 kts 45°
2026-05-03 20:52 -30.51270 -51.83168 24219 ft 444 kts 45°
2026-05-03 20:53 -30.49161 -51.80553 24221 ft 444 kts 45°
2026-05-03 20:53 -30.47048 -51.77940 24215 ft 444 kts 45°
2026-05-03 20:53 -30.44932 -51.75329 24216 ft 444 kts 45°
2026-05-03 20:53 -30.42830 -51.72704 24215 ft 444 kts 45°
2026-05-03 20:54 -30.40765 -51.70044 24216 ft 444 kts 46°
2026-05-03 20:54 -30.36675 -51.64642 24220 ft 445 kts 47°
2026-05-03 20:54 -30.34639 -51.61944 24215 ft 445 kts 47°
2026-05-03 20:55 -30.32596 -51.59253 24218 ft 445 kts 46°
2026-05-03 20:55 -30.30544 -51.56565 24217 ft 445 kts 46°
2026-05-03 20:55 -30.28489 -51.53889 24222 ft 445 kts 46°
2026-05-03 20:55 -30.26456 -51.51251 24221 ft 444 kts 46°
2026-05-03 20:56 -30.24395 -51.48584 24222 ft 444 kts 46°
2026-05-03 20:56 -30.22336 -51.45918 24221 ft 444 kts 46°
2026-05-03 20:56 -30.20276 -51.43249 24214 ft 444 kts 46°
2026-05-03 20:56 -30.18214 -51.40578 24211 ft 444 kts 46°
2026-05-03 20:57 -30.16160 -51.37920 24212 ft 444 kts 46°
2026-05-03 20:57 -30.14094 -51.35246 24205 ft 444 kts 46°
2026-05-03 20:57 -30.12036 -51.32582 24197 ft 444 kts 46°
2026-05-03 20:57 -30.09975 -51.29916 24198 ft 445 kts 46°
2026-05-03 20:58 -30.07914 -51.27254 24195 ft 445 kts 46°
2026-05-03 20:58 -30.05848 -51.24588 24192 ft 445 kts 46°
2026-05-03 20:58 -30.03781 -51.21921 24193 ft 445 kts 46°
2026-05-03 20:58 -30.01722 -51.19265 24192 ft 445 kts 46°
2026-05-03 20:59 -29.99655 -51.16598 24192 ft 445 kts 46°
2026-05-03 20:59 -29.97591 -51.13935 24195 ft 445 kts 46°
2026-05-03 20:59 -29.95548 -51.11311 24192 ft 445 kts 46°
2026-05-03 20:59 -29.93477 -51.08658 24192 ft 445 kts 46°
2026-05-03 21:00 -29.91406 -51.06010 24190 ft 445 kts 46°
2026-05-03 21:00 -29.90705 -51.05116 24192 ft 445 kts 46°
2026-05-03 21:00 -29.87257 -51.00712 24199 ft 445 kts 46°
2026-05-03 21:00 -29.85186 -50.98065 24202 ft 445 kts 46°
2026-05-03 21:01 -29.83109 -50.95411 24206 ft 445 kts 46°
2026-05-03 21:01 -29.81041 -50.92769 24206 ft 444 kts 46°
2026-05-03 21:01 -29.78971 -50.90128 24210 ft 444 kts 46°
2026-05-03 21:01 -29.76898 -50.87487 24214 ft 444 kts 46°
2026-05-03 21:02 -29.74825 -50.84847 24216 ft 445 kts 46°
2026-05-03 21:02 -29.73446 -50.83091 24216 ft 445 kts 46°
2026-05-03 21:02 -29.70674 -50.79559 24217 ft 445 kts 46°
2026-05-03 21:02 -29.69297 -50.77809 24220 ft 445 kts 46°
2026-05-03 21:03 -29.67223 -50.75175 24219 ft 445 kts 46°
2026-05-03 21:03 -29.65142 -50.72530 24220 ft 445 kts 46°
2026-05-03 21:03 -29.63065 -50.69892 24223 ft 445 kts 46°
2026-05-03 21:03 -29.60986 -50.67257 24223 ft 444 kts 46°
2026-05-03 21:04 -29.58236 -50.63774 24220 ft 444 kts 45°
2026-05-03 21:04 -29.56159 -50.61145 24222 ft 445 kts 45°
2026-05-03 21:04 -29.54782 -50.59402 24225 ft 445 kts 45°
2026-05-03 21:04 -29.52707 -50.56774 24215 ft 444 kts 45°
2026-05-03 21:05 -29.50618 -50.54157 24223 ft 444 kts 44°
2026-05-03 21:05 -29.48503 -50.51567 24225 ft 444 kts 44°
2026-05-03 21:05 -29.46373 -50.49002 24230 ft 444 kts 44°
2026-05-03 21:05 -29.44238 -50.46443 24227 ft 444 kts 44°
2026-05-03 21:06 -29.42102 -50.43882 24229 ft 444 kts 44°
2026-05-03 21:06 -29.39971 -50.41322 24231 ft 444 kts 44°
2026-05-03 21:06 -29.37836 -50.38750 24230 ft 444 kts 44°
2026-05-03 21:06 -29.35711 -50.36183 24234 ft 444 kts 44°
2026-05-03 21:07 -29.33585 -50.33609 24236 ft 444 kts 44°
2026-05-03 21:07 -29.31459 -50.31037 24239 ft 444 kts 44°
2026-05-03 21:07 -29.29333 -50.28469 24238 ft 444 kts 44°
2026-05-03 21:07 -29.27202 -50.25896 24240 ft 444 kts 44°
2026-05-03 21:08 -29.25077 -50.23332 24245 ft 444 kts 44°
2026-05-03 21:08 -29.22948 -50.20763 24244 ft 444 kts 44°
2026-05-03 21:08 -29.20843 -50.18226 24244 ft 444 kts 44°
2026-05-03 21:08 -29.18716 -50.15670 24247 ft 444 kts 44°
2026-05-03 21:09 -29.16580 -50.13107 24247 ft 444 kts 44°
2026-05-03 21:09 -29.14450 -50.10550 24247 ft 444 kts 44°
2026-05-03 21:09 -29.12320 -50.07993 24240 ft 443 kts 44°
2026-05-03 21:09 -29.10195 -50.05446 24242 ft 443 kts 43°
2026-05-03 21:10 -29.08061 -50.02892 24250 ft 442 kts 43°
2026-05-03 21:10 -29.05938 -50.00351 24257 ft 442 kts 43°
2026-05-03 21:10 -29.03810 -49.97803 24255 ft 442 kts 44°
2026-05-03 21:10 -29.01686 -49.95258 24253 ft 443 kts 43°
2026-05-03 21:11 -28.99560 -49.92711 24243 ft 443 kts 43°
2026-05-03 21:11 -28.97438 -49.90170 24259 ft 442 kts 43°
2026-05-03 21:11 -28.95310 -49.87624 24251 ft 442 kts 43°
2026-05-03 21:11 -28.93183 -49.85088 24252 ft 442 kts 43°
2026-05-03 21:12 -28.91047 -49.82547 24243 ft 442 kts 43°
2026-05-03 21:12 -28.88948 -49.80036 24242 ft 443 kts 44°
2026-05-03 21:12 -28.86855 -49.77455 24244 ft 443 kts 45°
2026-05-03 21:12 -28.84783 -49.74833 24257 ft 443 kts 45°
2026-05-03 21:13 -28.82731 -49.72201 24253 ft 443 kts 45°
2026-05-03 21:13 -28.80682 -49.69570 24243 ft 443 kts 45°
2026-05-03 21:13 -28.78627 -49.66947 24247 ft 443 kts 45°
2026-05-03 21:13 -28.76564 -49.64335 24253 ft 443 kts 45°
2026-05-03 21:14 -28.74520 -49.61761 24244 ft 443 kts 45°
2026-05-03 21:14 -28.72453 -49.59164 24246 ft 442 kts 45°
2026-05-03 21:14 -28.70381 -49.56572 24249 ft 442 kts 45°
2026-05-03 21:14 -28.68310 -49.53987 24246 ft 442 kts 45°
2026-05-03 21:15 -28.66239 -49.51400 24241 ft 442 kts 45°
2026-05-03 21:15 -28.64165 -49.48807 24245 ft 443 kts 45°
2026-05-03 21:15 -28.62093 -49.46215 24245 ft 443 kts 45°
2026-05-03 21:15 -28.60013 -49.43613 24245 ft 443 kts 45°
2026-05-03 21:16 -28.57936 -49.41013 24248 ft 443 kts 45°
2026-05-03 21:16 -28.55862 -49.38416 24248 ft 443 kts 45°
2026-05-03 21:16 -28.53787 -49.35824 24255 ft 443 kts 45°
2026-05-03 21:16 -28.51712 -49.33236 24250 ft 443 kts 45°
2026-05-03 21:17 -28.49636 -49.30648 24247 ft 443 kts 45°
2026-05-03 21:17 -28.48262 -49.28933 24245 ft 443 kts 45°
2026-05-03 21:17 -28.45479 -49.25465 24246 ft 444 kts 45°
2026-05-03 21:17 -28.43403 -49.22876 24244 ft 443 kts 45°
2026-05-03 21:18 -28.41325 -49.20286 24244 ft 443 kts 45°
2026-05-03 21:18 -28.39246 -49.17701 24249 ft 443 kts 45°
2026-05-03 21:18 -28.37165 -49.15117 24248 ft 444 kts 45°
2026-05-03 21:18 -28.35081 -49.12530 24245 ft 443 kts 45°
2026-05-03 21:19 -28.32999 -49.09949 24240 ft 443 kts 45°
2026-05-03 21:19 -28.30918 -49.07373 24244 ft 443 kts 45°
2026-05-03 21:19 -28.28835 -49.04794 24243 ft 443 kts 45°
2026-05-03 21:19 -28.26750 -49.02207 24244 ft 444 kts 45°
2026-05-03 21:20 -28.24674 -48.99613 24246 ft 444 kts 45°
2026-05-03 21:20 -28.22609 -48.97019 24247 ft 443 kts 45°
2026-05-03 21:20 -28.20544 -48.94417 24247 ft 443 kts 45°
2026-05-03 21:20 -28.18480 -48.91817 24245 ft 443 kts 45°
2026-05-03 21:21 -28.16415 -48.89220 24247 ft 443 kts 45°
2026-05-03 21:21 -28.14351 -48.86629 24247 ft 443 kts 45°
2026-05-03 21:21 -28.12309 -48.84072 24251 ft 443 kts 45°
2026-05-03 21:21 -28.10235 -48.81483 24248 ft 443 kts 45°
2026-05-03 21:22 -28.08162 -48.78900 24250 ft 443 kts 45°
2026-05-03 21:22 -28.06092 -48.76318 24250 ft 443 kts 45°
2026-05-03 21:22 -28.04019 -48.73734 24246 ft 443 kts 45°
2026-05-03 21:22 -28.01948 -48.71152 24247 ft 443 kts 45°
2026-05-03 21:23 -27.99880 -48.68575 24244 ft 443 kts 45°
2026-05-03 21:23 -27.97806 -48.65995 24244 ft 443 kts 45°
2026-05-03 21:23 -27.95734 -48.63416 24238 ft 443 kts 45°
2026-05-03 21:23 -27.93660 -48.60835 24239 ft 443 kts 45°
2026-05-03 21:24 -27.91585 -48.58255 24225 ft 443 kts 45°
2026-05-03 21:24 -27.89510 -48.55672 24233 ft 443 kts 45°
2026-05-03 21:24 -27.87441 -48.53095 24230 ft 443 kts 45°
2026-05-03 21:24 -27.85398 -48.50554 24229 ft 443 kts 45°
2026-05-03 21:25 -27.83328 -48.47980 24227 ft 443 kts 45°
2026-05-03 21:25 -27.81250 -48.45401 24227 ft 443 kts 45°
2026-05-03 21:25 -27.79179 -48.42827 24220 ft 443 kts 45°
2026-05-03 21:25 -27.77109 -48.40252 24227 ft 443 kts 45°
2026-05-03 21:26 -27.75036 -48.37687 24229 ft 442 kts 44°
2026-05-03 21:26 -27.72957 -48.35127 24226 ft 442 kts 44°
2026-05-03 21:26 -27.70871 -48.32569 24229 ft 442 kts 44°
2026-05-03 21:26 -27.68789 -48.30011 24231 ft 442 kts 44°
2026-05-03 21:27 -27.66713 -48.27447 24230 ft 442 kts 44°
2026-05-03 21:27 -27.64634 -48.24883 24235 ft 442 kts 44°
2026-05-03 21:27 -27.62548 -48.22315 24226 ft 442 kts 44°
2026-05-03 21:27 -27.60492 -48.19785 24236 ft 443 kts 44°
2026-05-03 21:28 -27.58409 -48.17220 24240 ft 443 kts 44°
2026-05-03 21:28 -27.56332 -48.14659 24240 ft 443 kts 44°
2026-05-03 21:28 -27.54244 -48.12090 24239 ft 443 kts 44°
2026-05-03 21:28 -27.52166 -48.09528 24240 ft 443 kts 44°
2026-05-03 21:29 -27.50086 -48.06968 24237 ft 443 kts 44°
2026-05-03 21:29 -27.48002 -48.04407 24237 ft 443 kts 44°
2026-05-03 21:29 -27.45914 -48.01850 24237 ft 443 kts 44°
2026-05-03 21:29 -27.43827 -47.99294 24232 ft 443 kts 44°
2026-05-03 21:30 -27.41768 -47.96771 24238 ft 444 kts 44°
2026-05-03 21:30 -27.39683 -47.94210 24239 ft 444 kts 44°
2026-05-03 21:30 -27.37596 -47.91652 24237 ft 444 kts 44°
2026-05-03 21:30 -27.35497 -47.89095 24244 ft 444 kts 44°
2026-05-03 21:31 -27.33394 -47.86549 24229 ft 444 kts 44°
2026-05-03 21:31 -27.31290 -47.84007 24236 ft 444 kts 44°
2026-05-03 21:31 -27.29183 -47.81465 24235 ft 444 kts 44°
2026-05-03 21:31 -27.27076 -47.78926 24230 ft 444 kts 44°
2026-05-03 21:32 -27.24973 -47.76388 24229 ft 444 kts 44°
2026-05-03 21:32 -27.22874 -47.73850 24230 ft 444 kts 44°
2026-05-03 21:32 -27.20768 -47.71300 24232 ft 444 kts 44°
2026-05-03 21:32 -27.18696 -47.68794 24237 ft 444 kts 44°
2026-05-03 21:33 -27.16598 -47.66254 24234 ft 444 kts 44°
2026-05-03 21:33 -27.14498 -47.63709 24235 ft 444 kts 44°
2026-05-03 21:33 -27.12394 -47.61165 24231 ft 444 kts 44°
2026-05-03 21:33 -27.10293 -47.58628 24220 ft 445 kts 44°
2026-05-03 21:34 -27.08181 -47.56084 24230 ft 447 kts 44°
2026-05-03 21:34 -27.06059 -47.53534 24229 ft 447 kts 44°
2026-05-03 21:34 -27.03935 -47.50982 24231 ft 447 kts 43°
2026-05-03 21:34 -27.01810 -47.48432 24233 ft 447 kts 43°
2026-05-03 21:35 -26.99682 -47.45877 24226 ft 447 kts 44°
2026-05-03 21:35 -26.97553 -47.43321 24239 ft 447 kts 44°
2026-05-03 21:35 -26.95428 -47.40767 24228 ft 447 kts 44°
2026-05-03 21:35 -26.93305 -47.38215 24230 ft 448 kts 44°
2026-05-03 21:36 -26.91181 -47.35667 24229 ft 447 kts 43°
2026-05-03 21:36 -26.89052 -47.33120 24231 ft 447 kts 43°
2026-05-03 21:36 -26.86954 -47.30615 24227 ft 447 kts 43°
2026-05-03 21:36 -26.84828 -47.28076 24226 ft 447 kts 43°
2026-05-03 21:37 -26.82691 -47.25538 24229 ft 447 kts 43°
2026-05-03 21:37 -26.80561 -47.23002 24229 ft 447 kts 43°
2026-05-03 21:37 -26.78434 -47.20465 24232 ft 447 kts 43°
2026-05-03 21:37 -26.76307 -47.17922 24221 ft 447 kts 43°
2026-05-03 21:38 -26.74183 -47.15388 24236 ft 447 kts 43°
2026-05-03 21:38 -26.72053 -47.12845 24234 ft 448 kts 43°
2026-05-03 21:38 -26.69922 -47.10304 24220 ft 449 kts 43°
2026-05-03 21:38 -26.67781 -47.07748 24228 ft 450 kts 43°
2026-05-03 21:39 -26.65636 -47.05191 24230 ft 451 kts 43°
2026-05-03 21:39 -26.63478 -47.02639 24228 ft 451 kts 43°
2026-05-03 21:39 -26.61323 -47.00102 24229 ft 451 kts 43°
2026-05-03 21:39 -26.59186 -46.97581 24229 ft 451 kts 43°
2026-05-03 21:40 -26.57028 -46.95035 24229 ft 450 kts 43°
2026-05-03 21:40 -26.54863 -46.92499 24231 ft 450 kts 43°
2026-05-03 21:40 -26.52700 -46.89968 24231 ft 451 kts 43°
2026-05-03 21:40 -26.50537 -46.87434 24231 ft 451 kts 43°
2026-05-03 21:41 -26.48376 -46.84903 24232 ft 451 kts 43°
2026-05-03 21:41 -26.46210 -46.82358 24231 ft 451 kts 43°
2026-05-03 21:41 -26.44053 -46.79818 24231 ft 451 kts 43°
2026-05-03 21:41 -26.41895 -46.77277 24230 ft 451 kts 43°
2026-05-03 21:42 -26.39732 -46.74736 24231 ft 451 kts 43°
2026-05-03 21:42 -26.37568 -46.72202 24231 ft 451 kts 43°
2026-05-03 21:42 -26.35404 -46.69672 24231 ft 451 kts 43°
2026-05-03 21:42 -26.33240 -46.67141 24231 ft 451 kts 43°
2026-05-03 21:43 -26.31073 -46.64608 24228 ft 451 kts 43°
2026-05-03 21:43 -26.28902 -46.62072 24227 ft 453 kts 43°
2026-05-03 21:43 -26.26721 -46.59527 24228 ft 454 kts 42°
2026-05-03 21:43 -26.24534 -46.56984 24227 ft 454 kts 42°
2026-05-03 21:44 -26.22377 -46.54471 24227 ft 455 kts 42°
2026-05-03 21:44 -26.20185 -46.51914 24231 ft 456 kts 42°
2026-05-03 21:44 -26.17999 -46.49363 24230 ft 456 kts 42°
2026-05-03 21:44 -26.15805 -46.46807 24231 ft 456 kts 42°
2026-05-03 21:45 -26.13614 -46.44258 24234 ft 456 kts 42°
2026-05-03 21:45 -26.11418 -46.41708 24233 ft 456 kts 42°
2026-05-03 21:45 -26.09229 -46.39166 24235 ft 456 kts 42°
2026-05-03 21:45 -26.07038 -46.36617 24230 ft 455 kts 42°
2026-05-03 21:46 -26.04849 -46.34071 24230 ft 456 kts 42°
2026-05-03 21:46 -26.02648 -46.31514 24231 ft 456 kts 42°
2026-05-03 21:46 -26.00457 -46.28969 24232 ft 456 kts 42°
2026-05-03 21:46 -25.99031 -46.27315 24235 ft 456 kts 42°
2026-05-03 21:47 -25.96831 -46.24768 24229 ft 456 kts 42°
2026-05-03 21:47 -25.94632 -46.22233 24230 ft 456 kts 42°
2026-05-03 21:47 -25.92432 -46.19693 24228 ft 456 kts 42°
2026-05-03 21:47 -25.89519 -46.16321 24225 ft 456 kts 42°
2026-05-03 21:48 -25.87317 -46.13773 24233 ft 456 kts 42°
2026-05-03 21:48 -25.85834 -46.12059 24233 ft 456 kts 42°
2026-05-03 21:48 -25.83638 -46.09517 24232 ft 456 kts 42°
2026-05-03 21:48 -25.81440 -46.06975 24231 ft 456 kts 42°
2026-05-03 21:49 -25.79267 -46.04468 24228 ft 456 kts 42°
2026-05-03 21:49 -25.77067 -46.01934 24233 ft 456 kts 42°
2026-05-03 21:49 -25.74861 -45.99405 24230 ft 456 kts 42°
2026-05-03 21:49 -25.72654 -45.96877 24227 ft 456 kts 42°
2026-05-03 21:50 -25.70446 -45.94337 24234 ft 456 kts 42°
2026-05-03 21:50 -25.68245 -45.91805 24231 ft 456 kts 42°
2026-05-03 21:50 -25.66043 -45.89271 24233 ft 456 kts 42°
2026-05-03 21:50 -25.63840 -45.86732 24233 ft 456 kts 42°
2026-05-03 21:51 -25.61638 -45.84204 24232 ft 456 kts 42°
2026-05-03 21:51 -25.59433 -45.81680 24230 ft 456 kts 42°
2026-05-03 21:51 -25.57229 -45.79161 24231 ft 456 kts 42°
2026-05-03 21:51 -25.55047 -45.76671 24225 ft 456 kts 42°
2026-05-03 21:52 -25.52834 -45.74141 24228 ft 457 kts 42°
2026-05-03 21:52 -25.50618 -45.71607 24228 ft 460 kts 42°
2026-05-03 21:52 -25.48380 -45.69054 24231 ft 462 kts 42°
2026-05-03 21:52 -25.46144 -45.66496 24231 ft 463 kts 42°
2026-05-03 21:53 -25.43906 -45.63930 24231 ft 463 kts 42°
2026-05-03 21:53 -25.41663 -45.61363 24231 ft 463 kts 42°
2026-05-03 21:53 -25.39418 -45.58801 24231 ft 463 kts 42°
2026-05-03 21:53 -25.37177 -45.56250 24230 ft 464 kts 41°
2026-05-03 21:54 -25.34926 -45.53687 24228 ft 464 kts 41°
2026-05-03 21:54 -25.32674 -45.51128 24228 ft 464 kts 41°
2026-05-03 21:54 -25.30419 -45.48564 24228 ft 464 kts 42°
2026-05-03 21:54 -25.28165 -45.45995 24228 ft 464 kts 42°
2026-05-03 21:55 -25.25948 -45.43470 24225 ft 464 kts 42°
2026-05-03 21:55 -25.23695 -45.40906 24225 ft 464 kts 41°
2026-05-03 21:55 -25.21442 -45.38347 24222 ft 464 kts 41°
2026-05-03 21:55 -25.19184 -45.35786 24225 ft 466 kts 41°
2026-05-03 21:56 -25.16925 -45.33219 24226 ft 466 kts 41°
2026-05-03 21:56 -25.14656 -45.30640 24228 ft 466 kts 41°
2026-05-03 21:56 -25.12414 -45.28098 24218 ft 466 kts 41°
2026-05-03 21:56 -25.10143 -45.25527 24228 ft 469 kts 41°
2026-05-03 21:57 -25.07862 -45.22951 24226 ft 470 kts 41°
2026-05-03 21:57 -25.05573 -45.20367 24225 ft 470 kts 41°
2026-05-03 21:57 -25.03287 -45.17784 24223 ft 471 kts 41°
2026-05-03 21:57 -25.00995 -45.15194 24226 ft 472 kts 41°
2026-05-03 21:58 -24.98698 -45.12603 24225 ft 472 kts 41°
2026-05-03 21:58 -24.96393 -45.10006 24226 ft 472 kts 41°
2026-05-03 21:58 -24.94093 -45.07415 24226 ft 472 kts 41°
2026-05-03 21:58 -24.91795 -45.04823 24226 ft 473 kts 41°
2026-05-03 21:59 -24.89502 -45.02235 24226 ft 472 kts 41°
2026-05-03 21:59 -24.87228 -44.99672 24225 ft 472 kts 41°
2026-05-03 21:59 -24.84935 -44.97086 24226 ft 472 kts 41°
2026-05-03 21:59 -24.82631 -44.94488 24225 ft 472 kts 41°
2026-05-03 22:00 -24.80335 -44.91903 24221 ft 473 kts 41°
2026-05-03 22:00 -24.78030 -44.89315 24229 ft 474 kts 41°
2026-05-03 22:00 -24.75719 -44.86731 24228 ft 474 kts 41°
2026-05-03 22:00 -24.73408 -44.84147 24225 ft 474 kts 41°
2026-05-03 22:01 -24.71092 -44.81556 24225 ft 474 kts 41°
2026-05-03 22:01 -24.68777 -44.78957 24222 ft 474 kts 42°
2026-05-03 22:01 -24.66498 -44.76397 24220 ft 474 kts 41°
2026-05-03 22:01 -24.64197 -44.73817 24219 ft 472 kts 42°
2026-05-03 22:02 -24.61895 -44.71234 24220 ft 472 kts 42°
2026-05-03 22:02 -24.59580 -44.68641 24220 ft 472 kts 42°
2026-05-03 22:02 -24.57279 -44.66071 24220 ft 472 kts 41°
2026-05-03 22:02 -24.55003 -44.63534 24220 ft 472 kts 41°
2026-05-03 22:03 -24.52697 -44.60965 24221 ft 471 kts 41°
2026-05-03 22:03 -24.50331 -44.58471 24208 ft 468 kts 35°
2026-05-03 22:03 -24.47701 -44.56407 24220 ft 461 kts 25°
2026-05-03 22:03 -24.44876 -44.54773 24220 ft 457 kts 21°
2026-05-03 22:04 -24.42034 -44.53193 24223 ft 458 kts 21°
2026-05-03 22:04 -24.39198 -44.51603 24223 ft 458 kts 21°
2026-05-03 22:04 -24.36361 -44.50005 24223 ft 458 kts 21°
2026-05-03 22:04 -24.33562 -44.48427 24223 ft 458 kts 21°
2026-05-03 22:05 -24.30729 -44.46835 24205 ft 457 kts 21°
2026-05-03 22:05 -24.27900 -44.45250 24225 ft 456 kts 21°
2026-05-03 22:05 -24.25075 -44.43673 24222 ft 455 kts 21°
2026-05-03 22:05 -24.22249 -44.42101 24234 ft 455 kts 21°
2026-05-03 22:06 -24.19417 -44.40526 24219 ft 456 kts 21°
2026-05-03 22:06 -24.16594 -44.38952 24220 ft 456 kts 21°
2026-05-03 22:06 -24.13761 -44.37369 24220 ft 456 kts 21°
2026-05-03 22:06 -24.10940 -44.35792 24216 ft 455 kts 21°
2026-05-03 22:07 -24.08123 -44.34219 24213 ft 455 kts 21°
2026-05-03 22:07 -24.05294 -44.32643 24225 ft 455 kts 21°
2026-05-03 22:07 -24.02507 -44.31093 24212 ft 454 kts 21°
2026-05-03 22:07 -23.99688 -44.29530 24215 ft 454 kts 21°
2026-05-03 22:08 -23.96869 -44.27968 24226 ft 454 kts 21°
2026-05-03 22:08 -23.94066 -44.26356 24199 ft 457 kts 26°
2026-05-03 22:08 -23.91491 -44.24286 24217 ft 463 kts 38°
2026-05-03 22:08 -23.89281 -44.21711 24228 ft 468 kts 49°
2026-05-03 22:09 -23.87518 -44.18699 24214 ft 473 kts 62°
2026-05-03 22:09 -23.86078 -44.15458 24215 ft 473 kts 63°
2026-05-03 22:09 -23.84646 -44.12221 24218 ft 473 kts 63°
2026-05-03 22:10 -23.80773 -44.06557 24216 ft 462 kts 34°
2026-05-03 22:10 -23.78095 -44.04817 24193 ft 448 kts 15°
2026-05-03 22:10 -23.75156 -44.03813 24216 ft 437 kts
2026-05-03 22:10 -23.72177 -44.03268 24220 ft 429 kts 358°
2026-05-03 22:11 -23.69204 -44.03017 24217 ft 428 kts 356°
2026-05-03 22:11 -23.66235 -44.02779 24222 ft 428 kts 356°
2026-05-03 22:11 -23.63264 -44.02554 24222 ft 428 kts 356°
2026-05-03 22:11 -23.60282 -44.02345 24215 ft 428 kts 356°
2026-05-03 22:12 -23.57343 -44.02153 24218 ft 428 kts 355°
2026-05-03 22:12 -23.54365 -44.01969 24219 ft 428 kts 355°
2026-05-03 22:12 -23.51389 -44.01790 24215 ft 428 kts 355°
2026-05-03 22:12 -23.48416 -44.01610 24218 ft 428 kts 355°
2026-05-03 22:13 -23.45441 -44.01424 24218 ft 428 kts 355°
2026-05-03 22:13 -23.42469 -44.01236 24220 ft 428 kts 355°
2026-05-03 22:13 -23.39491 -44.01046 24218 ft 428 kts 355°
2026-05-03 22:13 -23.36518 -44.00856 24219 ft 428 kts 355°
2026-05-03 22:14 -23.33545 -44.00664 24203 ft 427 kts 356°
2026-05-03 22:14 -23.30582 -44.00470 24219 ft 427 kts 356°
2026-05-03 22:14 -23.27617 -44.00277 24221 ft 426 kts 356°
2026-05-03 22:14 -23.24660 -44.00089 24223 ft 426 kts 356°
2026-05-03 22:15 -23.21700 -43.99903 24225 ft 426 kts 356°
2026-05-03 22:15 -23.18738 -43.99719 24223 ft 426 kts 355°
2026-05-03 22:15 -23.15779 -43.99536 24223 ft 426 kts 355°
2026-05-03 22:15 -23.12822 -43.99353 24221 ft 426 kts 355°
2026-05-03 22:16 -23.09862 -43.99170 24210 ft 425 kts 356°
2026-05-03 22:16 -23.06914 -43.98985 24226 ft 425 kts 356°
2026-05-03 22:16 -23.03961 -43.98796 24224 ft 424 kts 356°
2026-05-03 22:16 -23.01010 -43.98608 24224 ft 424 kts 356°
2026-05-03 22:17 -22.98064 -43.98421 24222 ft 425 kts 357°
2026-05-03 22:17 -22.95130 -43.97764 24220 ft 440 kts 16°
2026-05-03 22:17 -22.92531 -43.96013 24223 ft 455 kts 38°
2026-05-03 22:17 -22.90571 -43.93289 24225 ft 464 kts 58°
2026-05-03 22:18 -22.89047 -43.90208 24220 ft 462 kts 61°
2026-05-03 22:18 -22.87648 -43.87053 24222 ft 463 kts 63°
2026-05-03 22:18 -22.86320 -43.83871 24221 ft 463 kts 64°
2026-05-03 22:18 -22.85005 -43.80687 24217 ft 464 kts 64°
2026-05-03 22:19 -22.83664 -43.77503 24224 ft 464 kts 63°
2026-05-03 22:19 -22.82288 -43.74331 24220 ft 464 kts 62°
2026-05-03 22:19 -22.81018 -43.71117 24219 ft 465 kts 72°
2026-05-03 22:19 -22.80156 -43.67733 24224 ft 466 kts 74°
2026-05-03 22:20 -22.79336 -43.64338 24220 ft 464 kts 75°
2026-05-03 22:20 -22.78555 -43.61012 24220 ft 448 kts 75°
2026-05-03 22:20 -22.77460 -43.57943 24215 ft 426 kts 54°
2026-05-03 22:20 -22.75561 -43.55673 24217 ft 401 kts 29°
2026-05-03 22:21 -22.73145 -43.54275 24222 ft 389 kts 14°
2026-05-03 22:21 -22.70610 -43.53365 24195 ft 378 kts 10°
2026-05-03 22:21 -22.68240 -43.52321 24055 ft 364 kts 17°
2026-05-03 22:21 -22.65913 -43.51537 23821 ft 340 kts
2026-05-03 22:22 -22.63619 -43.51060 23355 ft 333 kts
2026-05-03 22:22 -22.61351 -43.50626 22861 ft 328 kts
2026-05-03 22:22 -22.59109 -43.50206 22393 ft 324 kts
2026-05-03 22:22 -22.56901 -43.49801 21898 ft 320 kts
2026-05-03 22:23 -22.54711 -43.49418 21399 ft 317 kts
2026-05-03 22:23 -22.52533 -43.49050 20909 ft 315 kts
2026-05-03 22:23 -22.50368 -43.48695 20436 ft 313 kts
2026-05-03 22:23 -22.48221 -43.48351 19959 ft 311 kts
2026-05-03 22:24 -22.46083 -43.48014 19488 ft 309 kts
2026-05-03 22:24 -22.43952 -43.47690 19009 ft 307 kts 360°
2026-05-03 22:24 -22.41882 -43.47791 18544 ft 292 kts 339°
2026-05-03 22:24 -22.40082 -43.48606 18013 ft 280 kts 319°
2026-05-03 22:25 -22.38690 -43.50003 17475 ft 269 kts 301°
2026-05-03 22:25 -22.37833 -43.51769 16951 ft 262 kts 284°
2026-05-03 22:25 -22.37552 -43.53693 16423 ft 258 kts 266°
2026-05-03 22:25 -22.37848 -43.55578 16114 ft 254 kts 250°
2026-05-03 22:26 -22.38667 -43.57290 16064 ft 260 kts 234°
2026-05-03 22:26 -22.39951 -43.58670 15967 ft 262 kts 217°
2026-05-03 22:26 -22.41566 -43.59536 15476 ft 266 kts 198°
2026-05-03 22:26 -22.43413 -43.59769 14990 ft 270 kts 179°
2026-05-03 22:27 -22.45252 -43.59339 14525 ft 275 kts 164°
2026-05-03 22:27 -22.47059 -43.58638 14059 ft 274 kts 164°
2026-05-03 22:27 -22.48848 -43.57947 13543 ft 272 kts 164°
2026-05-03 22:27 -22.50628 -43.57263 13039 ft 271 kts 164°
2026-05-03 22:28 -22.52411 -43.56578 12522 ft 270 kts 163°
2026-05-03 22:28 -22.54173 -43.55901 12057 ft 268 kts 162°
2026-05-03 22:28 -22.55928 -43.55221 11596 ft 267 kts 162°
2026-05-03 22:28 -22.57669 -43.54548 11169 ft 264 kts 161°
2026-05-03 22:29 -22.59376 -43.53893 10750 ft 262 kts 161°
2026-05-03 22:29 -22.61090 -43.53235 10317 ft 261 kts 161°
2026-05-03 22:29 -22.62793 -43.52579 9848 ft 259 kts 160°
2026-05-03 22:29 -22.64345 -43.51609 9395 ft 257 kts 139°
2026-05-03 22:30 -22.65486 -43.50134 8944 ft 254 kts 126°
2026-05-03 22:30 -22.66511 -43.48579 8496 ft 252 kts 126°
2026-05-03 22:30 -22.67512 -43.47065 8106 ft 247 kts 127°
2026-05-03 22:30 -22.68481 -43.45603 7961 ft 232 kts 127°
2026-05-03 22:31 -22.69412 -43.44201 7657 ft 226 kts 127°
2026-05-03 22:31 -22.70317 -43.42841 7251 ft 218 kts 127°
2026-05-03 22:31 -22.71195 -43.41519 6539 ft 215 kts 127°
2026-05-03 22:31 -22.71773 -43.40649 6025 ft 214 kts 127°
2026-05-03 22:32 -22.72633 -43.39354 5299 ft 210 kts 128°
2026-05-03 22:32 -22.73480 -43.38077 4642 ft 204 kts 128°
2026-05-03 22:32 -22.74261 -43.36900 4385 ft 182 kts 128°
2026-05-03 22:32 -22.74971 -43.35830 4069 ft 171 kts 128°
2026-05-03 22:33 -22.75645 -43.34815 3604 ft 163 kts 128°
2026-05-03 22:33 -22.76306 -43.33819 2981 ft 164 kts 128°
2026-05-03 22:33 -22.76972 -43.32816 2351 ft 163 kts 128°
2026-05-03 22:33 -22.77635 -43.31817 1728 ft 163 kts 128°
2026-05-03 22:34 -22.78297 -43.30818 1111 ft 163 kts 127°
2026-05-03 22:34 -22.78959 -43.29816 839 ft 164 kts 126°
2026-05-03 22:34 -22.79609 -43.28832 638 ft 156 kts 125°
2026-05-03 22:34 -22.80223 -43.27899 423 ft 151 kts 124°
2026-05-03 22:35 -22.80821 -43.26985 247 ft 148 kts 124°
2026-05-03 22:35 -22.81428 -43.26093 40 ft 145 kts 125°
2026-05-03 22:35 -22.81936 -43.25309 29 ft 105 kts 126°
2026-05-03 22:35 -22.82240 -43.24864 20 ft 40 kts 125°
2026-05-03 22:36 -22.82341 -43.24653 20 ft 19 kts 102°
2026-05-03 22:36 -22.82362 -43.24540 19 ft 13 kts 97°
2026-05-03 22:36 -22.82335 -43.24422 18 ft 23 kts 43°
2026-05-03 22:36 -22.82203 -43.24322 21 ft 23 kts 35°
2026-05-03 22:37 -22.82098 -43.24320 21 ft 14 kts 345°
2026-05-03 22:37 -22.82008 -43.24268 22 ft 16 kts 34°
2026-05-03 22:37 -22.81939 -43.24222 22 ft 3 kts 334°
2026-05-03 22:37 -22.81928 -43.24239 23 ft 6 kts 306°
2026-05-03 22:38 -22.81898 -43.24286 23 ft 9 kts 305°
2026-05-03 22:38 -22.81889 -43.24298 22 ft 0 kts 307°